星链-37104(STARLINK-37104)

导读

STARLINK-37104(NORAD编号68231)是美国SpaceX公司星链(Starlink)星座中的一颗卫星。2025年12月,该卫星在轨发生异常,轨道高度骤降约4000米,与地面失去通信联系,产生数十块空间碎片。经初步分析,事故由卫星内部问题引发,排除了与其他太空物体碰撞的可能。SpaceX称卫星大致保持完整但处于翻滚状态,预计其及产生的碎片将在几周内再入地球大气层烧毁。目前SpaceX正联合美国相关机构监测碎片,暂无碰撞风险报告,这一事件再次引发行业对低轨星座空间安全的关注。(150字)

基本信息
目录编号:
68231
目录名称:
STARLINK-37104
国际标识:
2026-053AA
轨道中心:
EARTH
卫星名称:
星链-37104
卫星全名:
星链-37104(STARLINK-37104)
卫星状态:
在轨 (已飞行178 天)
发射日期:
2026-03-17 UTC
国别 :
美国 (US)
星等 :
--
该卫星已列入 空间交会检测服务 Space Conjunction Data Service (SCDS) ,当前飞行风险评估等级: 无高风险
轨道信息
数据来源 国际轨道数据
星历时间: 2026-09-10T22:52:17+0800
18小时前
查看轨道信息
半长轴: 6843.721km
偏心率: 0.0001786
轨道倾角: 97.284°
近地点辐角 83.172°
升交点赤经 127.605°
平近点角 276.973°
近地点: 464.361km
远地点: 466.807km
周期: 93.907分钟
每日圈数: 15.334313
详细信息
固有亮度:
5
最大亮度:
2.5
卫星平台:
Starlink V1.0
覆盖范围:
全球
运营商:
太空探索技术公司
运营商所在国:
美国
制造商(研发单位):
太空探索技术公司
制造商所在国:
美国
使用方式:
暂无
卫星简介
Starlink 计划是 SpaceX 推出的全球卫星互联网项目,通过发射低轨道卫星,为全球尤其是偏远地区提供高速、低延迟的互联网服务。自 2019 年起,Starlink 已部署数千颗卫星,旨在缩小全球数字鸿沟,推动互联网普及。该项目还为军事、航空等行业提供通信支持,带来广泛经济效益。
2D轨道图
3D轨道图
轨道高度分析图
轨道倾角分析图
轨道综合分析图
查看轨道综合分析图
交会数据列表
事件ID 空间交会对象 最接近时刻(TCA) 交会距离 交会风险概率(CRP) 交会风险指数(CRI) 操作
CDM_260913-000604-860206-823121
2026-09-13T
00:06:50+0000
2.929 km
极远距离
1.372655E-6 低风险 0.38
CDM_260911-225205-901406-823121
2026-09-11T
22:52:12+0000
2.965 km
极远距离
1.350243E-6 低风险 0.38
CDM_260911-202304-737806-823121
2026-09-11T
20:23:35+0000
2.944 km
极远距离
1.204516E-6 低风险 0.37
CDM_260913-060506-491706-823121
2026-09-13T
06:05:15+0000
2.817 km
极远距离
1.101272E-6 低风险 0.36
与全量物体交会距离演化趋势
与全量物体交会风险概率演化趋势